weather.gov     
National Weather Service

Regional Weather Roundup
NWS Homepage
This page is being discontinued on March 12, 2014.
The same data is available at this site. Please update your bookmarks.
Thank you, and we apologize for the inconvenience.
Please send an email to SR-SRH.Webmaster@noaa.gov with any concerns.


Current Version
Previous Version:    01  02  03  04  05  06  07  08  09  10  11  12  13  14  15  16  17  18  19  20  21  22  23  24  25  26  
[Printable]
915
ASUS42 KKEY 301110
RWRKEY

FLORIDA REGIONAL WEATHER ROUNDUP FOR THE FLORIDA KEYS
NATIONAL WEATHER SERVICE KEY WEST FLORIDA
700 AM EDT WED JUL 30 2014

...SOUTH FLORIDA AND THE KEYS...

CITY           SKY/WX    TMP DP  RH WIND       PRES   REMARKS
FORT MYERS     MOCLDY    79  77  94 CALM      29.97R
SW REGIONAL AP MOCLDY    77  75  93 CALM      29.97S
NAPLES         PTCLDY    81  81 100 CALM      29.97R HX  92
MIAMI          MOCLDY    81  76  84 SW5       29.99R
WEST KENDALL   PTCLDY    80  75  84 CALM      29.99R
HOMESTEAD      CLEAR     77  74  91 S2        29.99R
MARATHON       RAIN      81  77  88 SE7       29.99R FOG
BOCA CHICA NAS PTCLDY    84  75  74 W7        29.99R HX  92
KEY WEST INTL  CLEAR     84  73  69 W6        30.00R HX  90

...INTERNATIONAL WEATHER...

CITY           SKY/WX    TMP DP  RH WIND       PRES   REMARKS
NASSAU BAHAMAS MOCLDY    82  73  74 S3        30.00
CANCUN MEXICO  PTCLDY    72  72 100 CALM      30.01R
COZUMEL MEXICO PTCLDY    72  72 100 CALM      30.02R

ADJACENT COASTAL WATERS...

STATION/POSITION TIME  SKY/WX   TEMP    WIND        PRES    WAVE
                                AIR SEA DIR/SP/G            HT/PER
                 (UTC)          (F)     (DEG/KT/KT) (MB)    (FT/S)
PULASKI SHOAL LI 1100            85     270/  7/  7 1015.6R
SAND KEY         1100            84     250/  8/ 12 1015.7R
SOMBRERO KEY     1100            85     230/  9/  9 1016.4R
LONG KEY         0954            86 90  250/  7/  8 1015.8S
MOLASSES REEF    1100            85 86  230/  7/  8 1015.5R
FOWEY ROCKS      1100            85 86  240/  7/  9 1015.7R
Buoy 42080       NOT AVBL

$$




U.S. Dept. of Commerce
NOAA National Weather Service
1325 East West Highway
Silver Spring, MD 20910
E-mail: w-nws.webmaster@noaa.gov
Page last modified: May 16, 2007
NATIONAL WEATHER SERVICE: for Safety, for Work, for Fun - FOR LIFE